[[{"header":{"parameterUnit":"m.s-1","parameterCategory":1,"la1":30.2991,"la2":30.254,"lo1":-89.0895,"lo2":-89.0444,"dy":0.0017,"dx":0.0017,"nx":28,"ny":28,"refTime":"2023-09-15T03:00:00:Z","depth":0,"parameterNumber":2,"parameterNumberName":"U-component_of_WINDS"},"data":[0,0,0,0,0,0,0,0,0,0,0,0,0,0,0,0,0,0,0,0,0,0,0,0,0,0,0,0,0,0,0,0,0,0,0,0,0,0,0,0,0,0,0,0,0,0,0,0,0,0,0,0,0,0,0,0,0,0,-1.3922,-1.3922,0,-1.3917,-1.3917,-1.3917,-1.387,-1.3869,-1.3868,-1.3867,-1.3863,-1.3864,-1.3865,0,0,0,0,0,0,0,0,0,0,0,0,0,-1.389,-1.389,-1.3922,-1.3922,-1.3922,-1.3917,-1.3917,-1.3917,-1.387,-1.3869,-1.3867,-1.3866,-1.3863,-1.3864,-1.3865,0,0,0,0,0,0,0,0,0,0,0,0,0,-1.3896,-1.3891,-1.3922,-1.3898,-1.3895,-1.3917,-1.3917,-1.3917,-1.3871,-1.3869,-1.3867,-1.3865,-1.3862,-1.3864,-1.3865,-1.391,0,0,-1.387,-1.3871,0,0,0,0,0,0,0,0,-1.3896,-1.3898,-1.3901,-1.3899,-1.3897,-1.3892,-1.3905,-1.3915,-1.3871,-1.388,-1.3867,-1.3865,-1.3874,-1.3875,-1.3878,-1.391,-1.391,-1.387,-1.3871,-1.3872,-1.3872,0,0,0,0,0,0,0,-1.3896,-1.3897,-1.392,-1.3901,-1.3899,-1.3887,-1.3886,-1.3906,-1.3887,-1.3879,-1.3876,-1.3876,-1.3873,-1.3877,-1.3877,-1.391,-1.387,-1.3871,-1.3872,-1.3873,-1.3979,-1.3981,0,0,0,0,0,0,-1.3898,-1.3897,-1.392,-1.392,-1.3892,-1.3889,-1.3888,-1.3896,-1.3887,-1.3884,-1.3877,-1.3874,-1.3875,-1.3876,-1.3877,-1.393,-1.3872,-1.3873,-1.3874,-1.3977,-1.3979,-1.3982,0,0,0,0,0,0,-1.3898,-1.3901,-1.392,-1.3908,-1.3909,-1.3892,-1.3901,-1.3897,-1.39,-1.3885,-1.3882,-1.3885,-1.3873,-1.3875,-1.3902,-1.3929,-1.3874,-1.3875,-1.3975,-1.3978,-1.3981,-1.4035,0,0,0,0,0,0,-1.3897,-1.3901,-1.3918,-1.3908,-1.391,-1.3946,-1.3902,-1.3898,-1.3903,-1.3898,-1.3891,-1.3889,-1.3872,-1.39,-1.3904,-1.393,-1.3876,-1.3972,-1.3976,-1.398,-1.4031,-1.4039,-1.4046,0,0,0,0,0,-1.3896,-1.3933,-1.3919,-1.3922,-1.3931,-1.3947,-1.3948,-1.3928,-1.3905,-1.3922,-1.3913,-1.3889,-1.3925,-1.3904,-1.3907,-1.3934,-1.3971,-1.3975,-1.3979,-1.4027,-1.4037,-1.4046,0,0,0,0,0,0,-1.3946,-1.3932,-1.3915,-1.3951,-1.3951,-1.3939,-1.396,-1.394,-1.3947,-1.3942,-1.3917,-1.3916,-1.3947,-1.3943,-1.3919,-1.3977,-1.3944,-1.3949,-1.3979,-1.3989,-1.3996,-1.3997,-1.3877,0,0,0,0,0,-1.3961,-1.3976,-1.3962,-1.3995,-1.3995,-1.3978,-1.3984,-1.3969,-1.3968,-1.3968,-1.396,-1.396,-1.3972,-1.398,-1.3989,-1.4029,-1.4028,-1.405,-1.4058,-1.4064,-1.4069,-1.4091,-1.41,-1.3996,-1.3996,-1.3996,0,0,-1.3993,-1.3987,-1.3997,-1.4004,-1.4003,-1.4018,-1.3978,-1.3996,-1.4008,-1.397,-1.3996,-1.3991,-1.3989,-1.4023,-1.4038,-1.4021,-1.4098,-1.407,-1.4075,-1.4077,-1.4096,-1.4106,-1.4115,-1.3999,-1.3998,-1.3998,0,0,-1.4059,-1.4055,-1.4082,-1.4081,-1.4078,-1.4066,-1.4073,-1.4065,-1.406,-1.4085,-1.4057,-1.407,-1.409,-1.4091,-1.4093,-1.4159,-1.4138,-1.4163,-1.4205,-1.4226,-1.4234,-1.4241,-1.4265,-1.4274,-1.4168,-1.4168,-1.4168,0,-1.4098,-1.4121,-1.4098,-1.4118,-1.4122,-1.4089,-1.4116,-1.4116,-1.4117,-1.4121,-1.4102,-1.4126,-1.4123,-1.4157,-1.4173,-1.4176,-1.4183,-1.4164,-1.4235,-1.4242,-1.4248,-1.4271,-1.428,-1.4171,-1.4171,-1.417,-1.417,0,-1.417,-1.4186,-1.4208,-1.4209,-1.4216,-1.4239,-1.4221,-1.423,-1.4214,-1.4204,-1.4231,-1.4225,-1.4233,-1.424,-1.4225,-1.4272,-1.4262,-1.4239,-1.4205,-1.4261,-1.4282,-1.4291,-1.4176,-1.4174,-1.4173,-1.4173,0,0,-1.4267,-1.4256,-1.4265,-1.4265,-1.426,-1.4272,-1.4294,-1.4302,-1.4311,-1.4312,-1.4331,-1.4349,-1.4328,-1.4331,-1.4315,-1.4333,-1.4387,-1.4308,-1.4308,-1.4324,-1.4439,-1.4456,-1.4467,-1.4372,-1.4373,-1.4375,-1.4439,0,-1.4331,-1.4368,-1.4348,-1.4388,-1.4403,-1.4371,-1.4391,-1.439,-1.4381,-1.4393,-1.4383,-1.4396,-1.4367,-1.4369,-1.4386,-1.4377,-1.4409,-1.4372,-1.4389,-1.439,-1.4391,-1.4478,-1.4496,-1.4557,-1.4447,-1.4448,-1.4449,0,-1.441,-1.4415,-1.4457,-1.4449,-1.4454,-1.4472,-1.4478,-1.4489,-1.4488,-1.448,-1.4484,-1.4464,-1.4485,-1.4451,-1.4481,-1.4455,-1.4461,-1.4458,-1.446,-1.4461,-1.4424,-1.4482,-1.4576,-1.4586,-1.4462,-1.4461,-1.446,0,-1.4478,-1.4495,-1.4522,-1.4524,-1.4515,-1.4528,-1.4526,-1.4522,-1.4528,-1.4533,-1.4537,-1.4544,-1.4549,-1.4555,-1.4538,-1.4514,-1.457,-1.4534,-1.4565,-1.4565,-1.4578,-1.4578,-1.4675,-1.4581,-1.4581,-1.4581,-1.4581,0,-1.4552,-1.4578,-1.4553,-1.457,-1.4599,-1.4576,-1.4605,-1.4599,-1.4596,-1.4611,-1.4584,-1.4599,-1.4575,-1.4587,-1.4574,-1.4601,-1.4603,-1.4597,-1.4594,-1.46,-1.4601,-1.4604,-1.46,-1.4583,-1.4583,-1.4582,-1.4582,0,-1.4633,-1.4616,-1.4644,-1.4634,-1.4632,-1.4654,-1.4645,-1.466,-1.4649,-1.4669,-1.4672,-1.4656,-1.4669,-1.4652,-1.4664,-1.4655,-1.4692,-1.4681,-1.4692,-1.4689,-1.4721,-1.4719,-1.4825,-1.4838,-1.4735,-1.4736,-1.4737,0,-1.4681,-1.4701,-1.4693,-1.4701,-1.4699,-1.4713,-1.4719,-1.4697,-1.4704,-1.4704,-1.472,-1.473,-1.4738,-1.4761,-1.475,-1.4759,-1.4749,-1.4786,-1.475,-1.4757,-1.4751,-1.475,-1.4752,-1.4793,-1.4795,-1.4796,-1.4796,0,-1.4769,-1.476,-1.4769,-1.4776,-1.4784,-1.4789,-1.4791,-1.4799,-1.4776,-1.4786,-1.4799,-1.4805,-1.4817,-1.4829,-1.4835,-1.4832,-1.4811,-1.4807,-1.4815,-1.4822,-1.4828,-1.4826,-1.4713,-1.4805,-1.4804,-1.4804,-1.4803,-1.4803,-1.4835,-1.4852,-1.4849,-1.486,-1.486,-1.4863,-1.4876,-1.4867,-1.4878,-1.4886,-1.4872,-1.4889,-1.4887,-1.4893,-1.4893,-1.4906,-1.489,-1.4901,-1.4904,-1.4907,-1.4912,-1.4826,-1.4907,-1.4906,-1.4906,-1.4906,-1.4906,0,-1.4922,-1.4919,-1.493,-1.4934,-1.4943,-1.4922,-1.4923,-1.4933,-1.4948,-1.4947,-1.4956,-1.4971,-1.4982,-1.4972,-1.4981,-1.4993,-1.4984,-1.4997,-1.4996,-1.4996,-1.4925,-1.4918,-1.5004,-1.5004,-1.5004,-1.5004,-1.5004,-1.5004,-1.4969,-1.4995,-1.4986,-1.5012,-1.5008,-1.5024,-1.5027,-1.503,-1.503,-1.5048,-1.5057,-1.505,-1.5046,-1.5055,-1.5064,-1.5061,-1.5066,-1.5082,-1.5075,-1.501,-1.5001,-1.4991,-1.4984,-1.5083,-1.5083,-1.5145,-1.5145,-1.5146]},{"header":{"parameterUnit":"m.s-1","parameterCategory":1,"la1":30.2991,"la2":30.254,"lo1":-89.0895,"lo2":-89.0444,"dy":0.0017,"dx":0.0017,"nx":28,"ny":28,"refTime":"2023-09-15T03:00:00:Z","depth":0,"parameterNumber":3,"parameterNumberName":"V-component_of_WINDS"},"data":[0,0,0,0,0,0,0,0,0,0,0,0,0,0,0,0,0,0,0,0,0,0,0,0,0,0,0,0,0,0,0,0,0,0,0,0,0,0,0,0,0,0,0,0,0,0,0,0,0,0,0,0,0,0,0,0,0,0,-1.4927,-1.4927,0,-1.4948,-1.4948,-1.4949,-1.4945,-1.4944,-1.4944,-1.4944,-1.4964,-1.4964,-1.4965,0,0,0,0,0,0,0,0,0,0,0,0,0,-1.4881,-1.4882,-1.4927,-1.4927,-1.4927,-1.4948,-1.4948,-1.4949,-1.4945,-1.4944,-1.4944,-1.4943,-1.4963,-1.4964,-1.4965,0,0,0,0,0,0,0,0,0,0,0,0,0,-1.4901,-1.4882,-1.4927,-1.4928,-1.4928,-1.4948,-1.4948,-1.4949,-1.4945,-1.4944,-1.4944,-1.4943,-1.4963,-1.4964,-1.4966,-1.4985,0,0,-1.497,-1.497,0,0,0,0,0,0,0,0,-1.49,-1.4903,-1.4928,-1.4928,-1.4928,-1.4943,-1.4939,-1.4961,-1.4945,-1.4938,-1.4944,-1.4943,-1.4957,-1.4959,-1.4964,-1.4986,-1.4987,-1.497,-1.497,-1.4971,-1.4971,0,0,0,0,0,0,0,-1.4899,-1.4902,-1.4935,-1.4928,-1.4928,-1.4927,-1.4929,-1.4943,-1.4951,-1.4939,-1.4939,-1.4941,-1.4957,-1.4963,-1.4964,-1.4987,-1.497,-1.4971,-1.4972,-1.4972,-1.5025,-1.5026,0,0,0,0,0,0,-1.4897,-1.4901,-1.4934,-1.4936,-1.4913,-1.4928,-1.4931,-1.4939,-1.495,-1.4952,-1.4942,-1.4941,-1.4961,-1.4963,-1.4965,-1.4989,-1.4971,-1.4972,-1.4973,-1.5025,-1.5025,-1.5026,0,0,0,0,0,0,-1.4896,-1.49,-1.4934,-1.4918,-1.4922,-1.4929,-1.4939,-1.494,-1.4945,-1.4953,-1.4954,-1.4946,-1.496,-1.4963,-1.498,-1.4989,-1.4973,-1.4974,-1.5024,-1.5025,-1.5026,-1.5036,0,0,0,0,0,0,-1.4895,-1.49,-1.4908,-1.4919,-1.4923,-1.4949,-1.4939,-1.494,-1.4948,-1.4947,-1.4957,-1.4958,-1.496,-1.4978,-1.4981,-1.4991,-1.4975,-1.5023,-1.5024,-1.5025,-1.5034,-1.5037,-1.5039,0,0,0,0,0,-1.4893,-1.4909,-1.4908,-1.4912,-1.4933,-1.4949,-1.4952,-1.4954,-1.4948,-1.4956,-1.4961,-1.4958,-1.4988,-1.498,-1.4983,-1.4993,-1.5023,-1.5024,-1.5025,-1.5034,-1.5036,-1.5039,0,0,0,0,0,0,-1.4899,-1.4911,-1.491,-1.493,-1.4939,-1.4949,-1.4959,-1.4957,-1.4967,-1.4966,-1.4968,-1.497,-1.4987,-1.4992,-1.4983,-1.5013,-1.5004,-1.5006,-1.5009,-1.5012,-1.5014,-1.5013,-1.4976,0,0,0,0,0,-1.4903,-1.4915,-1.4925,-1.4941,-1.4946,-1.4952,-1.4959,-1.496,-1.4969,-1.4972,-1.4978,-1.4986,-1.4997,-1.5005,-1.5015,-1.5035,-1.5037,-1.5043,-1.5045,-1.5047,-1.5049,-1.506,-1.5063,-1.5031,-1.5031,-1.5031,0,0,-1.491,-1.4918,-1.4926,-1.4943,-1.495,-1.4962,-1.4955,-1.4968,-1.4977,-1.4974,-1.499,-1.4995,-1.5004,-1.5022,-1.5031,-1.5027,-1.5058,-1.5049,-1.505,-1.5051,-1.5061,-1.5064,-1.5067,-1.5032,-1.5031,-1.5031,0,0,-1.4931,-1.4938,-1.4953,-1.496,-1.4971,-1.4975,-1.4978,-1.4988,-1.4991,-1.5008,-1.5006,-1.5016,-1.5035,-1.5042,-1.5048,-1.5071,-1.5068,-1.5074,-1.5085,-1.5095,-1.5098,-1.51,-1.5108,-1.5111,-1.5076,-1.5076,-1.5076,0,-1.4939,-1.4958,-1.4961,-1.4975,-1.4982,-1.498,-1.4995,-1.5001,-1.5015,-1.5019,-1.5015,-1.5039,-1.5045,-1.5065,-1.507,-1.5075,-1.5079,-1.5073,-1.5097,-1.5099,-1.5102,-1.5109,-1.5112,-1.5076,-1.5076,-1.5076,-1.5076,0,-1.4967,-1.4981,-1.4991,-1.5005,-1.5013,-1.5028,-1.5032,-1.504,-1.504,-1.5044,-1.506,-1.5068,-1.508,-1.5084,-1.5084,-1.5104,-1.5101,-1.5097,-1.5089,-1.5105,-1.5113,-1.5116,-1.5077,-1.5077,-1.5077,-1.5077,0,0,-1.4992,-1.5007,-1.5011,-1.5017,-1.5029,-1.5039,-1.5053,-1.5065,-1.5072,-1.5081,-1.5093,-1.5109,-1.5105,-1.5112,-1.5112,-1.5121,-1.5139,-1.5116,-1.5116,-1.512,-1.516,-1.5164,-1.5167,-1.5137,-1.5137,-1.5138,-1.516,0,-1.5014,-1.5039,-1.5042,-1.5064,-1.5076,-1.5074,-1.5086,-1.5094,-1.5098,-1.5108,-1.5112,-1.5124,-1.5118,-1.5122,-1.513,-1.5135,-1.5147,-1.5133,-1.5147,-1.5148,-1.5145,-1.5171,-1.5175,-1.5195,-1.5163,-1.5163,-1.5163,0,-1.5042,-1.5053,-1.5077,-1.5087,-1.5092,-1.5103,-1.5114,-1.5124,-1.5133,-1.5135,-1.5143,-1.5142,-1.5156,-1.5147,-1.5165,-1.5156,-1.5162,-1.5164,-1.5165,-1.5167,-1.5157,-1.5174,-1.5202,-1.5205,-1.5168,-1.5168,-1.5167,0,-1.5058,-1.5079,-1.5096,-1.5101,-1.5113,-1.5121,-1.5126,-1.5134,-1.5141,-1.5151,-1.5156,-1.5166,-1.5172,-1.5181,-1.5183,-1.5176,-1.5201,-1.5192,-1.5203,-1.5203,-1.5209,-1.5208,-1.5238,-1.5212,-1.5212,-1.5212,-1.5212,0,-1.5083,-1.5097,-1.5103,-1.5113,-1.513,-1.5132,-1.5148,-1.5152,-1.516,-1.517,-1.5169,-1.5179,-1.5181,-1.5191,-1.5193,-1.5208,-1.5211,-1.5212,-1.5213,-1.5213,-1.5212,-1.5217,-1.5215,-1.5213,-1.5212,-1.5212,-1.5212,0,-1.5103,-1.5108,-1.5126,-1.5136,-1.5139,-1.515,-1.5158,-1.5168,-1.5171,-1.5185,-1.5188,-1.5194,-1.5206,-1.5208,-1.5222,-1.5224,-1.5241,-1.524,-1.5239,-1.5239,-1.5249,-1.5248,-1.5283,-1.5288,-1.5258,-1.5259,-1.5259,0,-1.5118,-1.513,-1.5141,-1.5149,-1.5154,-1.5166,-1.5174,-1.5176,-1.5184,-1.5195,-1.5203,-1.5215,-1.5225,-1.5244,-1.5248,-1.5259,-1.5258,-1.5269,-1.526,-1.5259,-1.5258,-1.5258,-1.5259,-1.5271,-1.5272,-1.5272,-1.5272,0,-1.5145,-1.5147,-1.5158,-1.517,-1.5179,-1.5189,-1.5198,-1.5203,-1.5207,-1.5216,-1.5228,-1.5236,-1.525,-1.5262,-1.5273,-1.5277,-1.5275,-1.5275,-1.5278,-1.5278,-1.5277,-1.5278,-1.5244,-1.5274,-1.5274,-1.5274,-1.5274,-1.5274,-1.5163,-1.5173,-1.5183,-1.5196,-1.5203,-1.5211,-1.5221,-1.5225,-1.5236,-1.5249,-1.5249,-1.5263,-1.5271,-1.5285,-1.529,-1.53,-1.5297,-1.5301,-1.5302,-1.5304,-1.5305,-1.5275,-1.5302,-1.5302,-1.5302,-1.5302,-1.5302,0,-1.519,-1.5196,-1.5208,-1.5221,-1.523,-1.5228,-1.5238,-1.5246,-1.5258,-1.5266,-1.5276,-1.529,-1.5301,-1.5307,-1.5318,-1.5325,-1.5324,-1.5327,-1.5327,-1.5328,-1.5307,-1.5303,-1.5328,-1.5328,-1.5328,-1.5328,-1.5328,-1.5328,-1.5205,-1.5222,-1.5225,-1.5245,-1.525,-1.5264,-1.527,-1.5277,-1.5284,-1.53,-1.531,-1.5313,-1.532,-1.5332,-1.5342,-1.5343,-1.5347,-1.5351,-1.5352,-1.5332,-1.5329,-1.5327,-1.5324,-1.5352,-1.5352,-1.5372,-1.5372,-1.5372]}]]